Weather in Kingston Upon Thames

United Kingdom     51°24′39″N   0°17′29″E
temp.,
°C
wind,
m/s
gust,
m/s
humid.,
%
clouds,
%
prec.,
mm/h
press.,
hPa
HPBL,
m
25 january, mon
mon2500:00+1n4109072 0.3 999497
03:00+1n4107766 0.1 1003468
06:000nw386732 0.1 1006331
09:00+1wnw39750 0.0 1008442
12:00+3wnw48720 0.0 1010563
15:00+4wnw497514 0.0 1012826
18:00+3w4108226 0.0 1014652
21:00+2w398163 0.0 1016432
26 january, tue
tue2600:00+1wsw368031 0.0 1017275
03:000wsw268734 0.0 1017260
06:00+1sw258857 0.0 1018152
09:00+2ssw2379100 0.0 101897
12:00+5sw4979100 0.0 1018778
15:00+5ssw51082100 0.1 1015959
18:00+5ssw61388100 0.5 1013714
21:00+5ssw51391100 0.6 1012654
27 january, wed
wed2700:00+6sw3898100 0.8 1012246
03:00+6w3996100 0.0 1011283
06:00+6wsw2697100 0.1 1012195
09:00+6wsw1299100 2.8 101365
12:00+6s1299100 4.9 101384
15:00+7sw2497100 0.0 1012162
18:00+7ssw1198100 0.0 101222
21:00+7se1299100 1.1 101131
28 january, thu
thu2800:00+8se2799100 7.1 1008239
03:00+9sw31098100 6.0 1005422
06:00+10wsw5139499 7.2 1002830
09:00+11w61391100 0.1 1002979
12:00+12w6127253 0.1 1007946
15:00+11wsw6127671 0.1 10051242
18:00+11sw6138085 0.1 10041038
21:00+11sw81882100 1.8 9991380
29 january, fri
fri2900:00+11wsw81975100 3.4 9981698
03:00+9w8166789 0.1 10001411
06:00+7w6137195 0.1 1002844
09:00+7wsw51280100 0.0 1003720
12:00+9wsw41073100 0.0 1002737
15:00+10w367196 0.0 999931
18:00+9sw248298 0.1 998218
21:00+7w3989100 0.2 998411